• In Switzerland
  • List of Countries
  • For 7 days
  • Water Temperature
  • Satellite Maps
  • Weather Map
  • Weather Widgets
  • user-avatar
    Login

    Hourly Weather Kirkenes

    Today, 15 October, Monday

    Time Temperature Precipitation Wind Pressure Humidity
    00:00 +10°C° 0.1 mm 6 mps 736 mmHg 94%
    01:00 +10°C° 0.1 mm 6 mps 736 mmHg 93%
    02:00 +10°C° 0 mm 7 mps 735 mmHg 93%
    03:00 +10°C° 0.1 mm 7 mps 735 mmHg 93%
    04:00 +10°C° 0.1 mm 6 mps 735 mmHg 93%
    05:00 +10°C° 0.1 mm 6 mps 735 mmHg 93%
    06:00 +10°C° 0.5 mm 6 mps 735 mmHg 93%
    07:00 +9°C° 0.5 mm 6 mps 735 mmHg 93%
    08:00 +9°C° 0 mm 6 mps 734 mmHg 93%
    09:00 +8°C° 1.2 mm 7 mps 735 mmHg 91%
    10:00 +6°C° 1.2 mm 8 mps 736 mmHg 89%
    11:00 +5°C° 1.2 mm 9 mps 737 mmHg 87%
    12:00 +5°C° 0.2 mm 8 mps 738 mmHg 83%
    13:00 +5°C° 0.2 mm 8 mps 740 mmHg 79%
    14:00 +5°C° 0.2 mm 7 mps 741 mmHg 76%
    15:00 +4°C° 0 mm 6 mps 742 mmHg 78%
    16:00 +3°C° 0 mm 5 mps 742 mmHg 81%
    17:00 +3°C° 0 mm 5 mps 743 mmHg 84%
    18:00 +3°C° 0 mm 4 mps 744 mmHg 85%
    19:00 +3°C° 0 mm 4 mps 744 mmHg 86%
    20:00 +1°C° 0 mm 4 mps 744 mmHg 87%
    21:00 +1°C° 0 mm 4 mps 744 mmHg 86%
    22:00 +1°C° 0 mm 4 mps 744 mmHg 86%
    23:00 +1°C° 0 mm 4 mps 745 mmHg 86%

    Tomorrow, 16 October, Tuesday

    Time Temperature Precipitation Wind Pressure Humidity
    00:00 +1°C° 0 mm 4 mps 744 mmHg 86%
    01:00 +1°C° 0 mm 4 mps 744 mmHg 85%
    02:00 +2°C° 0 mm 3 mps 744 mmHg 85%
    03:00 +1°C° 0 mm 3 mps 744 mmHg 85%
    04:00 0°C° 0 mm 4 mps 744 mmHg 85%
    05:00 0°C° 0 mm 4 mps 743 mmHg 85%
    06:00 0°C° 0 mm 4 mps 743 mmHg 85%
    07:00 0°C° 0 mm 4 mps 743 mmHg 86%
    08:00 0°C° 0 mm 4 mps 743 mmHg 86%
    09:00 +1°C° 0 mm 4 mps 743 mmHg 82%
    10:00 +1°C° 0 mm 5 mps 743 mmHg 79%
    11:00 +2°C° 0 mm 5 mps 743 mmHg 75%
    12:00 +2°C° 0 mm 5 mps 743 mmHg 74%
    13:00 +3°C° 0 mm 5 mps 743 mmHg 72%
    14:00 +3°C° 0 mm 6 mps 743 mmHg 71%
    15:00 +3°C° 0 mm 6 mps 743 mmHg 74%
    16:00 +2°C° 0 mm 6 mps 744 mmHg 76%
    17:00 +2°C° 0 mm 6 mps 744 mmHg 79%
    18:00 +2°C° 0 mm 6 mps 744 mmHg 80%
    19:00 +1°C° 0 mm 6 mps 745 mmHg 82%
    20:00 +1°C° 0 mm 6 mps 745 mmHg 84%
    21:00 +1°C° 0 mm 6 mps 746 mmHg 85%
    22:00 +1°C° 0 mm 6 mps 746 mmHg 86%
    23:00 -1°C° 0 mm 6 mps 746 mmHg 86%

    Day after tomorrow, 17 October, Wednesday

    Time Temperature Precipitation Wind Pressure Humidity
    00:00 -1°C° 0 mm 6 mps 747 mmHg 87%
    01:00 -1°C° 0 mm 6 mps 747 mmHg 87%
    02:00 -1°C° 0 mm 6 mps 748 mmHg 87%
    03:00 0°C° 0 mm 5 mps 748 mmHg 87%
    04:00 0°C° 0 mm 5 mps 748 mmHg 86%
    05:00 -1°C° 0 mm 4 mps 748 mmHg 86%
    06:00 -1°C° 0 mm 4 mps 748 mmHg 86%
    07:00 -1°C° 0 mm 4 mps 748 mmHg 85%
    08:00 0°C° 0 mm 3 mps 748 mmHg 85%
    09:00 0°C° 0 mm 4 mps 748 mmHg 82%
    10:00 +1°C° 0 mm 5 mps 747 mmHg 79%
    11:00 +1°C° 0 mm 5 mps 747 mmHg 76%
    12:00 +2°C° 0 mm 5 mps 746 mmHg 76%
    13:00 +2°C° 0 mm 6 mps 746 mmHg 75%
    14:00 +2°C° 0 mm 6 mps 745 mmHg 75%
    15:00 +2°C° 0 mm 6 mps 745 mmHg 78%
    16:00 +2°C° 0 mm 6 mps 744 mmHg 81%
    17:00 +2°C° 0 mm 6 mps 744 mmHg 84%
    18:00 +2°C° 0.4 mm 6 mps 743 mmHg 85%
    19:00 +2°C° 0.4 mm 6 mps 743 mmHg 87%
    20:00 +2°C° 0.4 mm 6 mps 742 mmHg 89%
    21:00 +2°C° 0.1 mm 6 mps 742 mmHg 89%
    22:00 +2°C° 0.1 mm 6 mps 742 mmHg 90%
    23:00 +2°C° 0.1 mm 5 mps 741 mmHg 91%

    18 October, Thursday

    Time Temperature Precipitation Wind Pressure Humidity
    00:00 +2°C° 0 mm 5 mps 741 mmHg 92%
    01:00 +2°C° 0 mm 5 mps 741 mmHg 92%
    02:00 +1°C° 0 mm 5 mps 741 mmHg 93%
    03:00 +1°C° 0 mm 4 mps 741 mmHg 92%
    04:00 +1°C° 0 mm 4 mps 741 mmHg 92%
    05:00 +1°C° 0 mm 4 mps 741 mmHg 91%
    06:00 +1°C° 0.1 mm 4 mps 741 mmHg 91%
    07:00 +1°C° 0.1 mm 4 mps 741 mmHg 91%
    08:00 +3°C° 0.1 mm 4 mps 740 mmHg 91%
    09:00 +2°C° 0 mm 5 mps 740 mmHg 88%
    10:00 +2°C° 0 mm 5 mps 740 mmHg 85%
    11:00 +3°C° 0 mm 5 mps 740 mmHg 82%
    12:00 +3°C° 0 mm 5 mps 740 mmHg 80%
    13:00 +3°C° 0 mm 5 mps 740 mmHg 79%
    14:00 +3°C° 0 mm 5 mps 740 mmHg 78%
    15:00 +3°C° 0 mm 5 mps 739 mmHg 81%
    16:00 +2°C° 0 mm 5 mps 739 mmHg 83%
    17:00 +1°C° 0 mm 5 mps 739 mmHg 86%
    18:00 +1°C° 0 mm 5 mps 739 mmHg 86%
    19:00 +1°C° 0 mm 5 mps 738 mmHg 86%
    20:00 +1°C° 0 mm 5 mps 738 mmHg 86%
    21:00 +1°C° 0 mm 6 mps 737 mmHg 85%
    22:00 +1°C° 0 mm 6 mps 737 mmHg 84%
    23:00 +1°C° 0 mm 6 mps 736 mmHg 82%

    19 October, Friday

    Time Temperature Precipitation Wind Pressure Humidity
    00:00 +1°C° 0 mm 6 mps 736 mmHg 82%
    01:00 +1°C° 0 mm 6 mps 735 mmHg 82%
    02:00 +2°C° 0 mm 6 mps 735 mmHg 83%
    03:00 +2°C° 0.1 mm 6 mps 735 mmHg 84%
    04:00 +2°C° 0.1 mm 6 mps 734 mmHg 85%
    05:00 +2°C° 0.1 mm 6 mps 734 mmHg 86%
    06:00 +2°C° 0.1 mm 6 mps 735 mmHg 85%
    07:00 +2°C° 0.1 mm 7 mps 735 mmHg 85%
    08:00 +2°C° 0.1 mm 7 mps 736 mmHg 84%
    09:00 +2°C° 0 mm 7 mps 736 mmHg 83%
    10:00 +2°C° 0 mm 8 mps 737 mmHg 81%
    11:00 +2°C° 0 mm 8 mps 737 mmHg 80%
    12:00 +2°C° 0.1 mm 8 mps 738 mmHg 79%
    13:00 +2°C° 0.1 mm 9 mps 738 mmHg 78%
    14:00 +2°C° 0.1 mm 9 mps 739 mmHg 77%
    15:00 +2°C° 0.1 mm 9 mps 739 mmHg 80%
    16:00 +2°C° 0.1 mm 9 mps 740 mmHg 82%
    17:00 +1°C° 0.1 mm 9 mps 740 mmHg 84%
    18:00 +1°C° 0.1 mm 8 mps 741 mmHg 86%
    19:00 +2°C° 0.1 mm 7 mps 742 mmHg 87%
    20:00 +1°C° 0.1 mm 6 mps 742 mmHg 89%
    21:00 +1°C° 0 mm 5 mps 743 mmHg 90%
    22:00 +1°C° 0 mm 4 mps 743 mmHg 91%
    23:00 0°C° 0 mm 4 mps 743 mmHg 92%

    20 October, Saturday

    Time Temperature Precipitation Wind Pressure Humidity
    00:00 +1°C° 0 mm 3 mps 744 mmHg 92%
    01:00 +1°C° 0 mm 3 mps 744 mmHg 93%
    02:00 0°C° 0 mm 3 mps 744 mmHg 93%
    03:00 +1°C° 0 mm 2 mps 744 mmHg 93%
    04:00 +1°C° 0 mm 2 mps 744 mmHg 93%
    05:00 +1°C° 0 mm 2 mps 744 mmHg 93%
    06:00 +1°C° 0 mm 2 mps 744 mmHg 93%
    07:00 +1°C° 0 mm 2 mps 744 mmHg 93%
    08:00 +1°C° 0 mm 2 mps 744 mmHg 93%
    09:00 +1°C° 0 mm 2 mps 744 mmHg 91%
    10:00 +2°C° 0 mm 2 mps 744 mmHg 89%
    11:00 +3°C° 0 mm 2 mps 744 mmHg 87%
    12:00 +3°C° 0 mm 2 mps 744 mmHg 88%
    13:00 +3°C° 0 mm 2 mps 744 mmHg 88%
    14:00 +2°C° 0 mm 3 mps 743 mmHg 89%
    15:00 +1°C° 0 mm 3 mps 743 mmHg 90%
    16:00 +1°C° 0 mm 3 mps 743 mmHg 91%
    17:00 0°C° 0 mm 3 mps 743 mmHg 92%
    18:00 0°C° 0 mm 3 mps 742 mmHg 92%
    19:00 0°C° 0 mm 3 mps 742 mmHg 92%
    20:00 0°C° 0 mm 3 mps 742 mmHg 92%
    21:00 0°C° 0 mm 3 mps 741 mmHg 93%
    22:00 0°C° 0 mm 3 mps 741 mmHg 93%
    23:00 -1°C° 0 mm 3 mps 740 mmHg 93%
    Show more